User: anonymous   Login
Location: 5810 Zion Rd, Cleves, OH 45002, USA
(39.1922°N, 84.7113°W)
Time: 21:55:32
(UTC-05:00)
Language:

A-11 Canister half - Orbit

View from above orbital plane
View from above orbital plane
View from above satellite
View from above satellite

Ground track
Ground track

The orbit data is extracted from the following two-line orbital elements,

1    53U 60009E   19344.77853656 -.00000001 +00000-0 +81346-3 0  9998
2    53 047.2754 123.9071 0098063 239.6844 119.4215 12.17234111645465
Epoch (UTC): 10 December 2019 18:41:05
Eccentricity: 0.0098063
inclination: 47.2754°
perigee height: 1526 km
apogee height: 1683 km
right ascension of ascending node: 123.9071°
argument of perigee: 239.6844°
revolutions per day: 12.17234111
mean anomaly at epoch: 119.4215°
orbit number at epoch: 64546

The dashed part of the orbit path shows where the satellite is in the earth's shadow,  

DLR